FENGYUN 1C DEB, 31767

Orbit data source: Space-Track

FENGYUN 1C DEB, 31767 is space debris in SSO originally from a launch on Mon, 10 May 1999 UTC launched from the Taiyaun Space Center, China (TSC). Fengyun 1C debris stems from the Chinese weather satellite Fengyun-1C, which was intentionally destroyed by a Chinese anti-satellite missile in 2007. This event dramatically increased the amount of space debris, with thousands of trackable fragments posing hazards to satellites and human spaceflight. The Fengyun 1C debris cloud has become a focal point in discussions about space sustainability and the need for international regulations to prevent the creation of new debris.

Loading next visibility...
Identifier
31767, 1999-025CFS
Orbit
SSO
Country
Flag of CNCN / PRC
Related business
Manufacturer
Unknown
Mission
Spacecraft
Bus & Motor
Unknown
Mass
Unknown
Launch date (UTC)
1999-05-10 (27 years ago)
Launch vehicle
Unknown
Launch site
Taiyaun Space Center, China (TSC)
Object type
Payload
Rocket body
Debris
Shape & HBR
Unknown shape, 0.1 m
Radar Cross Section
Small (<0.1 m²)

Expand to show TLE details & history
Last TLE update: 5 days ago

TLE from 5 days ago
0 FENGYUN 1C DEB
1 31767U 99025CFS 26066.82959368  .00000537  00000-0  35771-3 0  9990
2 31767  98.8123  99.1318 0041022 189.5699 346.2308 14.05010304960205
Epoch: 2026-03-07T19:54Z
TLE epoch observation values (Epoch: 2026-03-07T19:54:36.893Z)
Latitude
4.17079°
Longitude
175.57678°
Altitude
850.04 km
Speed
7.443 km/s
True Right ascension
18h 39m 06s
True Declination
4° 08' 46"
Sunlit
Object was in daylight at epoch
Visualization orbit readout
Latitude
Unknown
Longitude
Unknown
Altitude
Unknown
Speed
Unknown
Apparent Right ascension
Unknown
Apparent Declination
Unknown
Sunlit
N/A
Visualization observer readout
Local Sidereal Time
20:01:32
Azimuth
Unknown
Elevation
Unknown
Doppler factor
Unknown
Orbital elements
Apogee altitude
903.429 km
Perigee altitude
843.932 km
Semi-major axis
7,251.817 km
Eccentricity
0.0041
Inclination
98.8123°
RAAN
99.1318°
Arg. of periapsis
189.5699°
True anomaly
346.11836°
Mean anomaly
346.2308°
Eccentric anomaly
346.17463°
Mean motion
3.51458 °/min
Orbital period
102.43 mins
BSTAR
0.00035771
Loading maneuver chart data...
Computing Atmospheric mass density...

Documentation

Showing up to 5 results
|